Home > Weather > Haugesund > Past weeks

Flag for Norway Weather for the Past 2 Weeks in Haugesund, Norway

Now
46 °F

Light rain. Broken clouds.


Feels Like: 38 °F
Forecast: 44 / 47 °F
Wind: 23 mph from South

Location: Karmoy

Current Time: May 1, 2016 at 8:10:32 PM

Latest Report: May 1, 2016 at 7:20 PM


Visibility: N/A

Pressure: 30.15 "Hg

Humidity: 82%

Dew Point: 41 °F

Location of HaugesundLocation

Historic Weather in Haugesund — Graph

°F

Haugesund Temperature Yesterday

Maximum temperature yesterday: 52 °F (at 4:50 PM)
Minimum temperature yesterday: 37 °F (at 12:20 AM)
Average temperature yesterday: 43 °F

High & Low Weather Summary for the Past Weeks

 TemperatureHumidityPressure
High54 °F (Apr 26, 3:20 PM)100% (Apr 23, 7:50 AM)30.39 "Hg (Apr 23, 7:50 AM)
Low28 °F (Apr 25, 5:20 AM)20% (Apr 26, 2:50 PM)29.50 "Hg (Apr 16, 6:20 PM)
Average43 °F72%29.87 "Hg
* Reported Apr 16 6:20 PM — May 1 6:50 PM, Haugesund, Weather by CustomWeather, © 2016

Note: Actual official high and low records may vary slightly from our data, if they occured in-between our weather recording intervals... More about our weather records

Advertising

Haugesund Weather History for the Previous 24 Hours

Scroll right to see more
 ConditionsComfort  
Time TempWeatherWind HumidityBarometerVisibility
6:50 PM
Sun, May 1
46 °FBroken clouds.20 mph82%30.15 "HgN/A
6:20 PM46 °FBroken clouds.24 mph82%30.18 "HgN/A
5:50 PM48 °FBroken clouds.22 mph76%30.18 "HgN/A
5:20 PM48 °FBroken clouds.23 mph76%30.18 "HgN/A
4:50 PM48 °FBroken clouds.21 mph71%30.18 "HgN/A
4:20 PM46 °FBroken clouds.23 mph76%30.18 "HgN/A
3:50 PM46 °FPartly sunny.22 mph76%30.18 "HgN/A
3:20 PM48 °FBroken clouds.23 mph76%30.18 "HgN/A
2:50 PM48 °FPartly sunny.22 mph71%30.18 "HgN/A
2:20 PM48 °FPartly sunny.23 mph71%30.18 "HgN/A
1:50 PM48 °FPartly sunny.24 mph71%30.18 "HgN/A
1:20 PM48 °FPartly sunny.24 mph71%30.18 "HgN/A
12:50 PM48 °FPartly sunny.21 mph66%30.21 "HgN/A
12:20 PM48 °FPartly sunny.17 mph66%30.21 "HgN/A
11:50 AM48 °FBroken clouds.18 mph66%30.21 "HgN/A
11:20 AM48 °FScattered clouds.18 mph62%30.21 "HgN/A
10:50 AM46 °FScattered clouds.18 mph66%30.21 "HgN/A
10:20 AM46 °FScattered clouds.16 mph71%30.21 "HgN/A
9:50 AM46 °FScattered clouds.17 mph71%30.21 "HgN/A
9:20 AM45 °FScattered clouds.14 mph76%30.21 "HgN/A
8:50 AM45 °FScattered clouds.13 mph81%30.21 "HgN/A
8:20 AM45 °FPassing clouds.10 mph81%30.21 "HgN/A
7:50 AM43 °FQuite cool.10 mph87%30.21 "HgN/A
7:20 AM43 °FPassing clouds.9 mph81%30.18 "HgN/A
6:20 AM43 °FOvercast.16 mph87%30.18 "HgN/A
5:50 AM43 °FPassing clouds.15 mph93%30.18 "HgN/A
4:50 AM41 °FLight rain. Partly cloudy.7 mph93%30.18 "HgN/A
4:20 AM41 °FOvercast.7 mph93%30.15 "HgN/A
3:50 AM41 °FOvercast.8 mph93%30.15 "HgN/A
3:20 AM39 °FOvercast.7 mph93%30.15 "HgN/A
2:50 AM37 °FPassing clouds.8 mph100%30.15 "HgN/A
2:20 AM37 °FOvercast.8 mph100%30.15 "HgN/A
1:50 AM37 °FMostly cloudy.7 mph100%30.15 "HgN/A
1:20 AM39 °FPartly cloudy.9 mph93%30.12 "HgN/A
12:50 AM37 °FPassing clouds.7 mph93%30.12 "HgN/A
12:20 AM39 °FPassing clouds.6 mph93%30.12 "HgN/A
11:50 PM
Sat, Apr 30
39 °FPassing clouds.6 mph93%30.12 "HgN/A
10:50 PM41 °FPartly cloudy.3 mph93%30.09 "HgN/A
10:20 PM41 °FBroken clouds.3 mph93%30.09 "HgN/A
9:50 PM41 °FBroken clouds.3 mph93%30.07 "HgN/A
9:20 PM43 °FBroken clouds.3 mph87%30.07 "HgN/A
8:50 PM43 °FPartly sunny.6 mph81%30.07 "HgN/A
8:20 PM43 °FPartly sunny.2 mph87%30.04 "HgN/A
Weather by CustomWeather, © 2016

See weather overviewHow to use our weather pages